Regional Weather Roundup
Issued by NWS

Home | Current Version | Previous Version | Graphics & Text | Print | Product List | Glossary On
Versions: 1 2 3 4 5 6 7 8 9 10 11 12 13 14 15 16 17 18 19 20 21 22 23 24 25 26 27 28 29 30 31 32 33 34 35 36 37 38 39 40 41 42 43 44 45 46 47 48 49 50
000
ASUS43 KLOT 212210
RWRIL

ILLINOIS REGIONAL WEATHER ROUNDUP
NATIONAL WEATHER SERVICE CHICAGO/ROMEOVILLE IL
500 PM CDT THU AUG 21 2014

NOTE: "FAIR" INDICATES FEW OR NO CLOUDS BELOW 12,000 FEET WITH NO
SIGNIFICANT WEATHER AND/OR OBSTRUCTIONS TO VISIBILITY.

* THESE STATIONS ARE NOT UNDER NWS QUALITY CONTROL. THEY ALSO MAY NOT
  REPORT WEATHER SUCH AS PRECIPITATION OR FOG.

ILZ001-002-007-009-015-016-024-212300-
NORTHWEST ILLINOIS

CITY           SKY/WX    TMP DP  RH WIND       PRES   REMARKS
MOLINE         CLOUDY    82  72  71 E8        29.90S HX  87
STERLING*      CLOUDY    77  73  88 S6        29.89F
SAVANNA*       CLOUDY    78  73  83 S12       29.90R HX  81
$$

ILZ003-004-008-010-011-017-018-212300-
NORTH CENTRAL ILLINOIS

CITY           SKY/WX    TMP DP  RH WIND       PRES   REMARKS
ROCKFORD       CLOUDY    77  74  90 SE12      29.90F
FREEPORT*      CLOUDY    75  74  94 S12       29.91S
ROCHELLE*      LGT RAIN  76  74  93 S6        29.91F
DE KALB*       CLOUDY    73  72  94 SE8       29.92F
PERU*          CLOUDY    83  72  69 CALM      29.93F HX  88
$$

ILZ005-006-012>014-019>023-212300-
NORTHEAST ILLINOIS

CITY           SKY/WX    TMP DP  RH WIND       PRES   REMARKS
CHICAGO-OHARE  CLOUDY    75  71  87 SE9       29.93F
CHICAGO-MIDWAY TSTM      77  75  93 E7        29.94F FOG
AURORA         LGT RAIN  76  73  91 SE6       29.92F FOG
LANSING*       TSTM      75  72  89 N8G28     29.94R
JOLIET*        TSTM      79  73  81 N10G16    29.96R HX  82
WAUKEGAN       CLOUDY    73  70  90 SE9       29.92S FOG
DUPAGE AIRPORT LGT RAIN  76  71  85 S7        29.94F
KANKAKEE*      CLOUDY    85  76  76 W7        29.91F HX  94
WHEELING       CLOUDY    76  73  91 S10       29.94F FOG
MORRIS*        CLOUDY    81  75  81 N5G18     29.94S HX  87
ROMEOVILLE*    HVY RAIN  76  74  95 N6        29.95S
NORTHERLY ISL    N/A     72  70  93 NE7         N/A
$$

LMZ740>746-212300-
SOUTHERN LAKE MICHIGAN

STATION/POSITION SKY/WX   TEMP    WIND        PRES    VSBY  WAVE
                          AIR SEA DIR/SP/G                  HT/PER
                          (F)     (DEG/KT/KT) (MB)    (MI)  (FT/S)
SOUTHERN BUOY              69 69  170/  8/ 10 1013.6F         1
WAUKEGAN HARBOR            72     170/ 11/ 13   N/A
HARRISON CRIB              71      30/  5/  7   N/A
BURNHAM HARBOR             72      80/  7/  9   N/A
CALUMET HARBOR             72      40/  4/  6 1013.3S
BURNS HARBOR               77      80/ 11/ 16   N/A
MICHIGAN CITY              77     110/  5/  7   N/A
MICHIGAN CITY 6N           75 72   70/  2/  4   N/A           0
ST. JOSEPH                 74 71  310/  2/  4   N/A           1
$$

ILZ025>027-034>036-040-047-049-050-058-095>099-212300-
WEST-CENTRAL ILLINOIS

CITY           SKY/WX    TMP DP  RH WIND       PRES   REMARKS
QUINCY         PTSUNNY   90  75  61 SW7       29.90F HX 100
GALESBURG*     CLOUDY    89  76  66 SE5       29.92F HX 100
MACOMB*        PTSUNNY   85  78  77 SE6       29.93F HX  97
JACKSONVILLE*  PTSUNNY   91  78  65 S9        29.93F HX 105
PITTSFIELD*    MOSUNNY   92  74  56 SW6       29.93F HX 101
$$

ILZ028>032-037-038-041>044-048-051>054-059>061-212300-
CENTRAL ILLINOIS

CITY           SKY/WX    TMP DP  RH WIND       PRES   REMARKS
PONTIAC        PTSUNNY   86  75  70 W5        29.93F HX  95
DECATUR        PTSUNNY   88  75  65 SW12      29.95S HX  97
PEORIA         CLOUDY    87  75  67 CALM      29.93S HX  96
LACON*         CLOUDY    83  72  69 CALM      29.92F HX  89
LINCOLN*       PTSUNNY   89  75  63 SW3       29.91S HX  99
SPRINGFIELD    CLOUDY    90  77  65 S8        29.93F HX 103
TAYLORVILLE    CLOUDY    84  77  79 S6        29.95S HX  94
$$

ILZ033-039-045-046-055>057-062-063-212300-
EAST-CENTRAL ILLINOIS

CITY           SKY/WX    TMP DP  RH WIND       PRES   REMARKS
CHAMPAIGN      PTSUNNY   87  76  69 SW14      29.96S HX  97
DANVILLE*      RAIN      84  77  78 S9        29.92F HX  94
RANTOUL*       PTSUNNY   87  74  64 SW10      29.96S HX  96
MATTOON        PTSUNNY   86  75  69 S12G17    29.96F HX  95
PARIS*         MOSUNNY   87  78  74 S9        29.97S HX  99
$$

ILZ079-100>102-212300-
SOUTHWEST ILLINOIS

CITY           SKY/WX    TMP DP  RH WIND       PRES   REMARKS
ALTON          MOSUNNY   91  81  70 S9        29.94F HX 110
BELLEVILLE     PTSUNNY   91  78  66 E6        29.94F HX 105
CAHOKIA*       PTSUNNY   94  74  52 S6        29.93F HX 104
SPARTA*        PTSUNNY   90  77  66 S8        29.97F HX 102
$$

ILZ064>066-069>071-074>076-080>082-084>086-088>090-092>094-212300-
SOUTH-CENTRAL ILLINOIS

CITY           SKY/WX    TMP DP  RH WIND       PRES   REMARKS
CARBONDALE     PTSUNNY   89  75  63 S8G18     29.98F HX  99
CAIRO*         PTSUNNY   91  74  57 S8        30.00F HX 100
MARION         PTSUNNY   90  75  62 S14       29.99F HX 100
MT. VERNON     PTSUNNY   88  73  62 S9        29.98F HX  96
CENTRALIA*     PTSUNNY   90  73  57 S9        29.97F HX  98
SALEM*         CLOUDY    89  77  69 S7        29.97F HX 101
METROPOLIS*      N/A     90  69  50 SW7       30.00  HX  94
$$

ILZ067-068-072-073-078-083-087-091-212300-
SOUTHEAST ILLINOIS

CITY           SKY/WX    TMP DP  RH WIND       PRES   REMARKS
LAWRENCEVILLE  PTSUNNY   89  77  67 S12       29.97F HX 101
FLORA*         PTSUNNY   87  76  69 S8        29.97F HX  97
FAIRFIELD*     PTSUNNY   90  81  74 SW5       29.98S HX 108
HARRISBURG*    PTSUNNY   90  73  57 SW10      30.01S HX  97
ROBINSON*      PTSUNNY   88  78  70 SW9       29.97F HX 101
CARMI*         PTSUNNY   90  77  66 S6        29.98F HX 102
$$

ABBREVIATIONS USED IN REMARKS
   TC - TEMPERATURE IN CELSIUS
  WCI - WIND CHILL INDEX
   HX - HEAT INDEX
  VSB - VISIBILITY
$$




USA.gov is the U.S. government's official web portal to all federal, state and local government web resources and services.